Year,Month,Day,Hour,Minute,Value (Times are PST for temperature in C)
2014,01,26,00,00,0.40
2014,01,26,00,01,0.40
2014,01,26,00,02,0.40
2014,01,26,00,03,0.40
2014,01,26,00,04,0.40
2014,01,26,00,05,0.40
2014,01,26,00,06,0.40
2014,01,26,00,07,0.40
2014,01,26,00,08,0.40
2014,01,26,00,09,0.40
2014,01,26,00,10,0.40
2014,01,26,00,11,0.40
2014,01,26,00,12,0.40
2014,01,26,00,13,0.40
2014,01,26,00,14,0.40
2014,01,26,00,15,0.40
2014,01,26,00,16,0.40
2014,01,26,00,17,0.40
2014,01,26,00,18,0.40
2014,01,26,00,19,0.40
2014,01,26,00,20,0.40
2014,01,26,00,21,0.40
2014,01,26,00,22,0.40
2014,01,26,00,23,0.40
2014,01,26,00,24,0.40
2014,01,26,00,25,0.40
2014,01,26,00,26,0.40
2014,01,26,00,27,0.40
2014,01,26,00,28,0.40
2014,01,26,00,29,0.40
2014,01,26,00,30,0.40
2014,01,26,00,31,0.40
2014,01,26,00,32,0.40
2014,01,26,00,33,0.40
2014,01,26,00,34,0.40
2014,01,26,00,35,0.40
2014,01,26,00,36,0.40
2014,01,26,00,37,0.40
2014,01,26,00,38,0.40
2014,01,26,00,39,0.40
2014,01,26,00,40,0.40
2014,01,26,00,41,0.40
2014,01,26,00,42,0.40
2014,01,26,00,43,0.40
2014,01,26,00,44,0.40
2014,01,26,00,45,0.40
2014,01,26,00,46,0.40
2014,01,26,00,47,0.40
2014,01,26,00,48,0.40
2014,01,26,00,49,0.40
2014,01,26,00,50,0.40
2014,01,26,00,51,0.40
2014,01,26,00,52,0.40
2014,01,26,00,53,0.40
2014,01,26,00,54,0.40
2014,01,26,00,55,0.40
2014,01,26,00,56,0.40
2014,01,26,00,57,0.40
2014,01,26,00,58,0.40
2014,01,26,00,59,0.40
2014,01,26,01,00,0.40
2014,01,26,01,01,0.40
2014,01,26,01,02,0.40
2014,01,26,01,03,0.40
2014,01,26,01,04,0.40
2014,01,26,01,05,0.40
2014,01,26,01,06,0.40
2014,01,26,01,07,0.40
2014,01,26,01,08,0.40
2014,01,26,01,09,0.40
2014,01,26,01,10,0.40
2014,01,26,01,11,0.40
2014,01,26,01,12,0.40
2014,01,26,01,13,0.40
2014,01,26,01,14,0.40
2014,01,26,01,15,0.40
2014,01,26,01,16,0.30
2014,01,26,01,17,0.30
2014,01,26,01,18,0.30
2014,01,26,01,19,0.30
2014,01,26,01,20,0.30
2014,01,26,01,21,0.30
2014,01,26,01,22,0.30
2014,01,26,01,23,0.30
2014,01,26,01,24,0.30
2014,01,26,01,25,0.30
2014,01,26,01,26,0.30
2014,01,26,01,27,0.30
2014,01,26,01,28,0.30
2014,01,26,01,29,0.30
2014,01,26,01,30,0.30
2014,01,26,01,31,0.30
2014,01,26,01,32,0.30
2014,01,26,01,33,0.20
2014,01,26,01,34,0.20
2014,01,26,01,35,0.20
2014,01,26,01,36,0.20
2014,01,26,01,37,0.20
2014,01,26,01,38,0.20
2014,01,26,01,39,0.20
2014,01,26,01,40,0.20
2014,01,26,01,41,0.20
2014,01,26,01,42,0.20
2014,01,26,01,43,0.20
2014,01,26,01,44,0.20
2014,01,26,01,45,0.20
2014,01,26,01,46,0.20
2014,01,26,01,47,0.20
2014,01,26,01,48,0.20
2014,01,26,01,49,0.20
2014,01,26,01,50,0.20
2014,01,26,01,51,0.20
2014,01,26,01,52,0.20
2014,01,26,01,53,0.20
2014,01,26,01,54,0.20
2014,01,26,01,55,0.20
2014,01,26,01,56,0.20
2014,01,26,01,57,0.20
2014,01,26,01,58,0.20
2014,01,26,01,59,0.20
2014,01,26,02,00,0.20
2014,01,26,02,01,0.20
2014,01,26,02,02,0.20
2014,01,26,02,03,0.20
2014,01,26,02,04,0.20
2014,01,26,02,05,0.20
2014,01,26,02,06,0.20
2014,01,26,02,07,0.20
2014,01,26,02,08,0.20
2014,01,26,02,09,0.20
2014,01,26,02,10,0.20
2014,01,26,02,11,0.20
2014,01,26,02,12,0.20
2014,01,26,02,13,0.20
2014,01,26,02,14,0.30
2014,01,26,02,15,0.30
2014,01,26,02,16,0.30
2014,01,26,02,17,0.30
2014,01,26,02,18,0.30
2014,01,26,02,19,0.30
2014,01,26,02,20,0.30
2014,01,26,02,21,0.30
2014,01,26,02,22,0.20
2014,01,26,02,23,0.20
2014,01,26,02,24,0.20
2014,01,26,02,25,0.20
2014,01,26,02,26,0.20
2014,01,26,02,27,0.20
2014,01,26,02,28,0.20
2014,01,26,02,29,0.20
2014,01,26,02,30,0.20
2014,01,26,02,31,0.20
2014,01,26,02,32,0.20
2014,01,26,02,33,0.20
2014,01,26,02,34,0.20
2014,01,26,02,35,0.20
2014,01,26,02,36,0.20
2014,01,26,02,37,0.20
2014,01,26,02,38,0.20
2014,01,26,02,39,0.20
2014,01,26,02,40,0.20
2014,01,26,02,41,0.20
2014,01,26,02,42,0.20
2014,01,26,02,43,0.20
2014,01,26,02,44,0.20
2014,01,26,02,45,0.20
2014,01,26,02,46,0.20
2014,01,26,02,47,0.20
2014,01,26,02,48,0.20
2014,01,26,02,49,0.20
2014,01,26,02,50,0.20
2014,01,26,02,51,0.20
2014,01,26,02,52,0.20
2014,01,26,02,53,0.20
2014,01,26,02,54,0.20
2014,01,26,02,55,0.20
2014,01,26,02,56,0.20
2014,01,26,02,57,0.20
2014,01,26,02,58,0.20
2014,01,26,02,59,0.20
2014,01,26,03,00,0.20
2014,01,26,03,01,0.20
2014,01,26,03,02,0.20
2014,01,26,03,03,0.20
2014,01,26,03,04,0.20
2014,01,26,03,05,0.20
2014,01,26,03,06,0.20
2014,01,26,03,07,0.20
2014,01,26,03,08,0.20
2014,01,26,03,09,0.20
2014,01,26,03,10,0.20
2014,01,26,03,11,0.20
2014,01,26,03,12,0.20
2014,01,26,03,13,0.20
2014,01,26,03,14,0.20
2014,01,26,03,15,0.20
2014,01,26,03,16,0.20
2014,01,26,03,17,0.20
2014,01,26,03,18,0.20
2014,01,26,03,19,0.20
2014,01,26,03,20,0.20
2014,01,26,03,21,0.20
2014,01,26,03,22,0.20
2014,01,26,03,23,0.20
2014,01,26,03,24,0.20
2014,01,26,03,25,0.20
2014,01,26,03,26,0.20
2014,01,26,03,27,0.20
2014,01,26,03,28,0.20
2014,01,26,03,29,0.30
2014,01,26,03,30,0.30
2014,01,26,03,31,0.30
2014,01,26,03,32,0.30
2014,01,26,03,33,0.30
2014,01,26,03,34,0.30
2014,01,26,03,35,0.30
2014,01,26,03,36,0.30
2014,01,26,03,37,0.30
2014,01,26,03,38,0.30
2014,01,26,03,39,0.30
2014,01,26,03,40,0.30
2014,01,26,03,41,0.30
2014,01,26,03,42,0.30
2014,01,26,03,43,0.30
2014,01,26,03,44,0.30
2014,01,26,03,45,0.30
2014,01,26,03,46,0.30
2014,01,26,03,47,0.30
2014,01,26,03,48,0.30
2014,01,26,03,49,0.30
2014,01,26,03,50,0.30
2014,01,26,03,51,0.30
2014,01,26,03,52,0.30
2014,01,26,03,53,0.30
2014,01,26,03,54,0.20
2014,01,26,03,55,0.20
2014,01,26,03,56,0.20
2014,01,26,03,57,0.20
2014,01,26,03,58,0.20
2014,01,26,03,59,0.20
2014,01,26,04,00,0.20
2014,01,26,04,01,0.20
2014,01,26,04,02,0.20
2014,01,26,04,03,0.20
2014,01,26,04,04,0.20
2014,01,26,04,05,0.20
2014,01,26,04,06,0.20
2014,01,26,04,07,0.20
2014,01,26,04,08,0.20
2014,01,26,04,09,0.20
2014,01,26,04,10,0.20
2014,01,26,04,11,0.20
2014,01,26,04,12,0.10
2014,01,26,04,13,0.10
2014,01,26,04,14,0.10
2014,01,26,04,15,0.10
2014,01,26,04,16,0.10
2014,01,26,04,17,0.10
2014,01,26,04,18,0.10
2014,01,26,04,19,0.10
2014,01,26,04,20,0.10
2014,01,26,04,21,0.10
2014,01,26,04,22,0.10
2014,01,26,04,23,0.10
2014,01,26,04,24,0.10
2014,01,26,04,25,0.10
2014,01,26,04,26,0.10
2014,01,26,04,27,0.10
2014,01,26,04,28,0.10
2014,01,26,04,29,0.10
2014,01,26,04,30,0.10
2014,01,26,04,31,0.10
2014,01,26,04,32,0.10
2014,01,26,04,33,0.10
2014,01,26,04,34,0.10
2014,01,26,04,35,0.10
2014,01,26,04,36,0.10
2014,01,26,04,37,0.10
2014,01,26,04,38,0.10
2014,01,26,04,39,0.10
2014,01,26,04,40,0.10
2014,01,26,04,41,0.00
2014,01,26,04,42,-0.10
2014,01,26,04,43,-0.10
2014,01,26,04,44,-0.10
2014,01,26,04,45,-0.10
2014,01,26,04,46,-0.10
2014,01,26,04,47,-0.10
2014,01,26,04,48,-0.10
2014,01,26,04,49,-0.10
2014,01,26,04,50,-0.10
2014,01,26,04,51,-0.10
2014,01,26,04,52,-0.10
2014,01,26,04,53,-0.10
2014,01,26,04,54,-0.10
2014,01,26,04,55,-0.10
2014,01,26,04,56,-0.10
2014,01,26,04,57,-0.10
2014,01,26,04,58,-0.10
2014,01,26,04,59,-0.10
2014,01,26,05,00,-0.10
2014,01,26,05,01,-0.10
2014,01,26,05,02,-0.10
2014,01,26,05,03,-0.10
2014,01,26,05,04,-0.10
2014,01,26,05,05,-0.10
2014,01,26,05,06,-0.10
2014,01,26,05,07,-0.10
2014,01,26,05,08,-0.10
2014,01,26,05,09,-0.10
2014,01,26,05,10,-0.10
2014,01,26,05,11,-0.10
2014,01,26,05,12,-0.10
2014,01,26,05,13,-0.10
2014,01,26,05,14,-0.10
2014,01,26,05,15,-0.10
2014,01,26,05,16,-0.10
2014,01,26,05,17,-0.10
2014,01,26,05,18,-0.10
2014,01,26,05,19,-0.10
2014,01,26,05,20,-0.10
2014,01,26,05,21,-0.10
2014,01,26,05,22,-0.10
2014,01,26,05,23,-0.10
2014,01,26,05,24,-0.10
2014,01,26,05,25,-0.10
2014,01,26,05,26,-0.10
2014,01,26,05,27,-0.10
2014,01,26,05,28,-0.10
2014,01,26,05,29,-0.10
2014,01,26,05,30,-0.10
2014,01,26,05,31,-0.10
2014,01,26,05,32,-0.10
2014,01,26,05,33,-0.10
2014,01,26,05,34,-0.10
2014,01,26,05,35,-0.10
2014,01,26,05,36,-0.10
2014,01,26,05,37,-0.10
2014,01,26,05,38,-0.10
2014,01,26,05,39,-0.10
2014,01,26,05,40,-0.10
2014,01,26,05,41,-0.10
2014,01,26,05,42,-0.10
2014,01,26,05,43,-0.10
2014,01,26,05,44,-0.10
2014,01,26,05,45,-0.10
2014,01,26,05,46,-0.10
2014,01,26,05,47,-0.10
2014,01,26,05,48,-0.10
2014,01,26,05,49,-0.10
2014,01,26,05,50,-0.10
2014,01,26,05,51,-0.10
2014,01,26,05,52,-0.10
2014,01,26,05,53,-0.10
2014,01,26,05,54,-0.10
2014,01,26,05,55,-0.10
2014,01,26,05,56,-0.10
2014,01,26,05,57,-0.10
2014,01,26,05,58,-0.10
2014,01,26,05,59,-0.10
2014,01,26,06,00,-0.10
2014,01,26,06,01,-0.10
2014,01,26,06,02,-0.10
2014,01,26,06,03,-0.10
2014,01,26,06,04,-0.10
2014,01,26,06,05,-0.10
2014,01,26,06,06,-0.10
2014,01,26,06,07,-0.20
2014,01,26,06,08,-0.20
2014,01,26,06,09,-0.20
2014,01,26,06,10,-0.20
2014,01,26,06,11,-0.30
2014,01,26,06,12,-0.30
2014,01,26,06,13,-0.30
2014,01,26,06,14,-0.30
2014,01,26,06,15,-0.30
2014,01,26,06,16,-0.30
2014,01,26,06,17,-0.30
2014,01,26,06,18,-0.30
2014,01,26,06,19,-0.30
2014,01,26,06,20,-0.30
2014,01,26,06,21,-0.30
2014,01,26,06,22,-0.30
2014,01,26,06,23,-0.30
2014,01,26,06,24,-0.30
2014,01,26,06,25,-0.30
2014,01,26,06,26,-0.40
2014,01,26,06,27,-0.40
2014,01,26,06,28,-0.40
2014,01,26,06,29,-0.40
2014,01,26,06,30,-0.40
2014,01,26,06,31,-0.40
2014,01,26,06,32,-0.40
2014,01,26,06,33,-0.40
2014,01,26,06,34,-0.40
2014,01,26,06,35,-0.40
2014,01,26,06,36,-0.40
2014,01,26,06,37,-0.40
2014,01,26,06,38,-0.40
2014,01,26,06,39,-0.40
2014,01,26,06,40,-0.40
2014,01,26,06,41,-0.40
2014,01,26,06,42,-0.40
2014,01,26,06,43,-0.40
2014,01,26,06,44,-0.40
2014,01,26,06,45,-0.40
2014,01,26,06,46,-0.40
2014,01,26,06,47,-0.40
2014,01,26,06,48,-0.40
2014,01,26,06,49,-0.40
2014,01,26,06,50,-0.40
2014,01,26,06,51,-0.40
2014,01,26,06,52,-0.60
2014,01,26,06,53,-0.60
2014,01,26,06,54,-0.60
2014,01,26,06,55,-0.60
2014,01,26,06,56,-0.60
2014,01,26,06,57,-0.60
2014,01,26,06,58,-0.70
2014,01,26,06,59,-0.70
2014,01,26,07,00,-0.70
2014,01,26,07,01,-0.70
2014,01,26,07,02,-0.70
2014,01,26,07,03,-0.70
2014,01,26,07,04,-0.70
2014,01,26,07,05,-0.70
2014,01,26,07,06,-0.70
2014,01,26,07,07,-0.70
2014,01,26,07,08,-0.70
2014,01,26,07,09,-0.70
2014,01,26,07,10,-0.70
2014,01,26,07,11,-0.70
2014,01,26,07,12,-0.80
2014,01,26,07,13,-0.80
2014,01,26,07,14,-0.80
2014,01,26,07,15,-0.80
2014,01,26,07,16,-0.80
2014,01,26,07,17,-0.80
2014,01,26,07,18,-0.80
2014,01,26,07,19,-0.80
2014,01,26,07,20,-0.80
2014,01,26,07,21,-0.80
2014,01,26,07,22,-0.80
2014,01,26,07,23,-0.80
2014,01,26,07,24,-0.80
2014,01,26,07,25,-0.80
2014,01,26,07,26,-0.80
2014,01,26,07,27,-0.80
2014,01,26,07,28,-0.80
2014,01,26,07,29,-0.80
2014,01,26,07,30,-0.80
2014,01,26,07,31,-0.80
2014,01,26,07,32,-0.80
2014,01,26,07,33,-0.80
2014,01,26,07,34,-0.80
2014,01,26,07,35,-0.80
2014,01,26,07,36,-0.80
2014,01,26,07,37,-0.70
2014,01,26,07,38,-0.70
2014,01,26,07,39,-0.70
2014,01,26,07,40,-0.70
2014,01,26,07,41,-0.70
2014,01,26,07,42,-0.70
2014,01,26,07,43,-0.70
2014,01,26,07,44,-0.70
2014,01,26,07,45,-0.70
2014,01,26,07,46,-0.70
2014,01,26,07,47,-0.70
2014,01,26,07,48,-0.70
2014,01,26,07,49,-0.70
2014,01,26,07,50,-0.70
2014,01,26,07,51,-0.70
2014,01,26,07,52,-0.70
2014,01,26,07,53,-0.70
2014,01,26,07,54,-0.70
2014,01,26,07,55,-0.70
2014,01,26,07,56,-0.70
2014,01,26,07,57,-0.70
2014,01,26,07,58,-0.70
2014,01,26,07,59,-0.70
2014,01,26,08,00,-0.70
2014,01,26,08,01,-0.70
2014,01,26,08,02,-0.70
2014,01,26,08,03,-0.70
2014,01,26,08,04,-0.70
2014,01,26,08,05,-0.70
2014,01,26,08,06,-0.70
2014,01,26,08,07,-0.70
2014,01,26,08,08,-0.70
2014,01,26,08,09,-0.80
2014,01,26,08,10,-0.80
2014,01,26,08,11,-0.80
2014,01,26,08,12,-0.80
2014,01,26,08,13,-0.80
2014,01,26,08,14,-0.90
2014,01,26,08,15,-0.90
2014,01,26,08,16,-0.90
2014,01,26,08,17,-0.90
2014,01,26,08,18,-0.90
2014,01,26,08,19,-0.90
2014,01,26,08,20,-0.90
2014,01,26,08,21,-0.90
2014,01,26,08,22,-0.90
2014,01,26,08,23,-0.90
2014,01,26,08,24,-0.90
2014,01,26,08,25,-0.90
2014,01,26,08,26,-0.90
2014,01,26,08,27,-0.90
2014,01,26,08,28,-0.90
2014,01,26,08,29,-0.90
2014,01,26,08,30,-0.90
2014,01,26,13,52,8.40
2014,01,26,13,53,8.40
2014,01,26,13,54,8.50
2014,01,26,13,55,8.50
2014,01,26,13,56,8.50
2014,01,26,13,57,8.60
2014,01,26,13,58,8.70
2014,01,26,13,59,8.70
2014,01,26,14,00,8.70
2014,01,26,14,01,8.80
2014,01,26,14,02,8.90
2014,01,26,14,03,9.00
2014,01,26,14,04,9.00
2014,01,26,14,05,9.10
2014,01,26,14,06,9.20
2014,01,26,14,07,9.30
2014,01,26,14,08,9.30
2014,01,26,14,09,9.40
2014,01,26,14,10,9.50
2014,01,26,14,11,9.50
2014,01,26,14,12,9.50
2014,01,26,14,13,9.60
2014,01,26,14,14,9.60
2014,01,26,14,15,9.60
2014,01,26,14,16,9.50
2014,01,26,14,17,9.50
2014,01,26,14,18,9.50
2014,01,26,14,19,9.50
2014,01,26,14,20,9.40
2014,01,26,14,21,9.40
2014,01,26,14,22,9.30
2014,01,26,14,23,9.30
2014,01,26,14,24,9.20
2014,01,26,14,25,9.20
2014,01,26,14,26,9.20
2014,01,26,14,27,9.20
2014,01,26,14,28,9.20
2014,01,26,14,29,9.10
2014,01,26,14,30,9.10
2014,01,26,14,31,9.00
2014,01,26,14,32,9.00
2014,01,26,14,33,9.00
2014,01,26,14,34,8.90
2014,01,26,14,35,8.90
2014,01,26,14,36,8.90
2014,01,26,14,37,8.90
2014,01,26,14,38,8.90
2014,01,26,14,39,8.90
2014,01,26,14,40,8.80
2014,01,26,14,41,8.80
2014,01,26,14,42,8.80
2014,01,26,14,43,8.80
2014,01,26,14,44,8.80
2014,01,26,14,45,8.70
2014,01,26,14,46,8.70
2014,01,26,14,47,8.70
2014,01,26,14,48,8.70
2014,01,26,14,49,8.70
2014,01,26,14,50,8.70
2014,01,26,14,51,8.70
2014,01,26,14,52,8.70
2014,01,26,14,53,8.70
2014,01,26,14,54,8.70
2014,01,26,14,55,8.60
2014,01,26,14,56,8.60
2014,01,26,14,57,8.50
2014,01,26,14,58,8.50
2014,01,26,14,59,8.40
2014,01,26,15,00,8.40
2014,01,26,15,01,8.40
2014,01,26,15,02,8.40
2014,01,26,15,03,8.30
2014,01,26,15,04,8.30
2014,01,26,15,05,8.30
2014,01,26,15,06,8.30
2014,01,26,15,07,8.30
2014,01,26,15,08,8.30
2014,01,26,15,09,8.30
2014,01,26,15,10,8.30
2014,01,26,15,11,8.20
2014,01,26,15,12,8.20
2014,01,26,15,13,8.20
2014,01,26,15,14,8.20
2014,01,26,15,15,8.20
2014,01,26,15,16,8.20
2014,01,26,15,17,8.20
2014,01,26,15,18,8.20
2014,01,26,15,19,8.20
2014,01,26,15,20,8.20
2014,01,26,15,21,8.20
2014,01,26,15,22,8.20
2014,01,26,15,23,8.20
2014,01,26,15,24,8.20
2014,01,26,15,25,8.20
2014,01,26,15,26,8.20
2014,01,26,15,27,8.20
2014,01,26,15,28,8.20
2014,01,26,15,29,8.20
2014,01,26,15,30,8.20
2014,01,26,15,31,8.20
2014,01,26,15,32,8.20
2014,01,26,15,33,8.10
2014,01,26,15,34,8.10
2014,01,26,15,35,8.10
2014,01,26,15,36,8.10
2014,01,26,15,37,8.10
2014,01,26,15,38,8.10
2014,01,26,15,39,8.10
2014,01,26,15,40,8.00
2014,01,26,15,41,8.00
2014,01,26,15,42,8.00
2014,01,26,15,43,8.00
2014,01,26,15,44,7.90
2014,01,26,15,45,7.90
2014,01,26,15,46,7.80
2014,01,26,15,47,7.80
2014,01,26,15,48,7.80
2014,01,26,15,49,7.80
2014,01,26,15,50,7.80
2014,01,26,15,51,7.70
2014,01,26,15,52,7.70
2014,01,26,15,53,7.70
2014,01,26,15,54,7.70
2014,01,26,15,55,7.60
2014,01,26,15,56,7.60
2014,01,26,15,57,7.60
2014,01,26,15,58,7.60
2014,01,26,15,59,7.50
2014,01,26,16,00,7.50
2014,01,26,16,01,7.40
2014,01,26,16,02,7.40
2014,01,26,16,03,7.30
2014,01,26,16,04,7.30
2014,01,26,16,05,7.20
2014,01,26,16,06,7.20
2014,01,26,16,07,7.20
2014,01,26,16,08,7.10
2014,01,26,16,09,7.10
2014,01,26,16,10,7.10
2014,01,26,16,11,7.00
2014,01,26,16,12,7.00
2014,01,26,16,13,7.00
2014,01,26,16,14,7.00
2014,01,26,16,15,7.00
2014,01,26,16,16,6.90
2014,01,26,16,17,6.90
2014,01,26,16,18,6.80
2014,01,26,16,19,6.80
2014,01,26,16,20,6.80
2014,01,26,16,21,6.80
2014,01,26,16,22,6.70
2014,01,26,16,23,6.70
2014,01,26,16,24,6.60
2014,01,26,16,25,6.60
2014,01,26,16,26,6.40
2014,01,26,16,27,6.40
2014,01,26,16,28,6.40
2014,01,26,16,29,6.40
2014,01,26,16,30,6.30
2014,01,26,16,31,6.30
2014,01,26,16,32,6.20
2014,01,26,16,33,6.20
2014,01,26,16,34,6.20
2014,01,26,16,35,6.20
2014,01,26,16,36,6.10
2014,01,26,16,37,6.10
2014,01,26,16,38,6.00
2014,01,26,16,39,6.00
2014,01,26,16,40,5.90
2014,01,26,16,41,5.90
2014,01,26,16,42,5.80
2014,01,26,16,43,5.70
2014,01,26,16,44,5.70
2014,01,26,16,45,5.70
2014,01,26,16,46,5.60
2014,01,26,16,47,5.60
2014,01,26,16,48,5.50
2014,01,26,16,49,5.50
2014,01,26,16,50,5.50
2014,01,26,16,51,5.40
2014,01,26,16,52,5.40
2014,01,26,16,53,5.30
2014,01,26,16,54,5.30
2014,01,26,16,55,5.30
2014,01,26,16,56,5.20
2014,01,26,16,57,5.20
2014,01,26,16,58,5.10
2014,01,26,16,59,5.10
2014,01,26,17,00,5.10
2014,01,26,17,01,5.10
2014,01,26,17,02,5.10
2014,01,26,17,03,5.00
2014,01,26,17,04,4.90
2014,01,26,17,05,4.90
2014,01,26,17,06,4.90
2014,01,26,17,07,4.90
2014,01,26,17,08,4.80
2014,01,26,17,09,4.80
2014,01,26,17,10,4.80
2014,01,26,17,11,4.80
2014,01,26,17,12,4.70
2014,01,26,17,13,4.70
2014,01,26,17,14,4.70
2014,01,26,17,15,4.60
2014,01,26,17,16,4.60
2014,01,26,17,17,4.60
2014,01,26,17,18,4.60
2014,01,26,17,19,4.50
2014,01,26,17,20,4.50
2014,01,26,17,21,4.50
2014,01,26,17,22,4.40
2014,01,26,17,23,4.40
2014,01,26,17,24,4.40
2014,01,26,17,25,4.30
2014,01,26,17,26,4.30
2014,01,26,17,27,4.30
2014,01,26,17,28,4.20
2014,01,26,17,29,4.20
2014,01,26,17,30,4.20
2014,01,26,17,31,4.20
2014,01,26,17,32,4.20
2014,01,26,17,33,4.10
2014,01,26,17,34,4.10
2014,01,26,17,35,4.10
2014,01,26,17,36,4.00
2014,01,26,17,37,4.00
2014,01,26,17,38,4.00
2014,01,26,17,39,3.90
2014,01,26,17,40,3.90
2014,01,26,17,41,3.80
2014,01,26,17,42,3.80
2014,01,26,17,43,3.80
2014,01,26,17,44,3.70
2014,01,26,17,45,3.70
2014,01,26,17,46,3.70
2014,01,26,17,47,3.60
2014,01,26,17,48,3.60
2014,01,26,17,49,3.60
2014,01,26,17,50,3.50
2014,01,26,17,51,3.50
2014,01,26,17,52,3.50
2014,01,26,17,53,3.40
2014,01,26,17,54,3.40
2014,01,26,17,55,3.40
2014,01,26,17,56,3.30
2014,01,26,17,57,3.30
2014,01,26,17,58,3.30
2014,01,26,17,59,3.30
2014,01,26,18,00,3.30
2014,01,26,18,01,3.30
2014,01,26,18,02,3.20
2014,01,26,18,03,3.20
2014,01,26,18,04,3.10
2014,01,26,18,05,3.10
2014,01,26,18,06,3.10
2014,01,26,18,07,3.10
2014,01,26,18,08,3.00
2014,01,26,18,09,2.90
2014,01,26,18,10,2.90
2014,01,26,18,11,2.90
2014,01,26,18,12,2.90
2014,01,26,18,13,2.90
2014,01,26,18,14,2.80
2014,01,26,18,15,2.80
2014,01,26,18,16,2.80
2014,01,26,18,17,2.80
2014,01,26,18,18,2.80
2014,01,26,18,19,2.80
2014,01,26,18,20,2.70
2014,01,26,18,21,2.70
2014,01,26,18,22,2.70
2014,01,26,18,23,2.70
2014,01,26,18,24,2.70
2014,01,26,18,25,2.70
2014,01,26,18,26,2.70
2014,01,26,18,27,2.70
2014,01,26,18,28,2.70
2014,01,26,18,29,2.60
2014,01,26,18,30,2.60
2014,01,26,18,31,2.60
2014,01,26,18,32,2.50
2014,01,26,18,33,2.50
2014,01,26,18,34,2.50
2014,01,26,18,35,2.40
2014,01,26,18,36,2.40
2014,01,26,18,37,2.30
2014,01,26,18,38,2.30
2014,01,26,18,39,2.30
2014,01,26,18,40,2.30
2014,01,26,18,41,2.20
2014,01,26,18,42,2.20
2014,01,26,18,43,2.20
2014,01,26,18,44,2.20
2014,01,26,18,45,2.20
2014,01,26,18,46,2.10
2014,01,26,18,47,2.10
2014,01,26,18,48,2.10
2014,01,26,18,49,2.10
2014,01,26,18,50,2.00
2014,01,26,18,51,2.00
2014,01,26,18,52,2.00
2014,01,26,18,53,2.00
2014,01,26,18,54,2.00
2014,01,26,18,55,1.90
2014,01,26,18,56,1.90
2014,01,26,18,57,1.90
2014,01,26,18,58,1.90
2014,01,26,18,59,1.80
2014,01,26,19,00,1.80
2014,01,26,19,01,1.80
2014,01,26,19,02,1.80
2014,01,26,19,03,1.80
2014,01,26,19,04,1.80
2014,01,26,19,05,1.70
2014,01,26,19,06,1.70
2014,01,26,19,07,1.70
2014,01,26,19,08,1.70
2014,01,26,19,09,1.60
2014,01,26,19,10,1.60
2014,01,26,19,11,1.60
2014,01,26,19,12,1.50
2014,01,26,19,13,1.50
2014,01,26,19,14,1.50
2014,01,26,19,15,1.40
2014,01,26,19,16,1.40
2014,01,26,19,17,1.40
2014,01,26,19,18,1.40
2014,01,26,19,19,1.30
2014,01,26,19,20,1.30
2014,01,26,19,21,1.30
2014,01,26,19,22,1.30
2014,01,26,19,23,1.30
2014,01,26,19,24,1.30
2014,01,26,19,25,1.30
2014,01,26,19,26,1.30
2014,01,26,19,27,1.30
2014,01,26,19,28,1.30
2014,01,26,19,29,1.30
2014,01,26,19,30,1.30
2014,01,26,19,31,1.30
2014,01,26,19,32,1.30
2014,01,26,19,33,1.30
2014,01,26,19,34,1.30
2014,01,26,19,35,1.30
2014,01,26,19,36,1.30
2014,01,26,19,37,1.30
2014,01,26,19,38,1.30
2014,01,26,19,39,1.30
2014,01,26,19,40,1.20
2014,01,26,19,41,1.20
2014,01,26,19,42,1.30
2014,01,26,19,43,1.30
2014,01,26,19,44,1.30
2014,01,26,19,45,1.20
2014,01,26,19,46,1.20
2014,01,26,19,47,1.20
2014,01,26,19,48,1.20
2014,01,26,19,49,1.20
2014,01,26,19,50,1.20
2014,01,26,19,51,1.20
2014,01,26,19,52,1.20
2014,01,26,19,53,1.20
2014,01,26,19,54,1.20
2014,01,26,19,55,1.20
2014,01,26,19,56,1.20
2014,01,26,19,57,1.10
2014,01,26,19,58,1.10
2014,01,26,19,59,1.10
2014,01,26,20,00,1.10
2014,01,26,20,01,1.10
2014,01,26,20,02,1.00
2014,01,26,20,03,1.00
2014,01,26,20,04,1.00
2014,01,26,20,05,1.00
2014,01,26,20,06,1.00
2014,01,26,20,07,1.00
2014,01,26,20,08,1.00
2014,01,26,20,09,1.00
2014,01,26,20,10,1.00
2014,01,26,20,11,1.00
2014,01,26,20,12,1.00
2014,01,26,20,13,1.00
2014,01,26,20,14,1.00
2014,01,26,20,15,1.00
2014,01,26,20,16,1.00
2014,01,26,20,17,1.00
2014,01,26,20,18,0.90
2014,01,26,20,19,0.90
2014,01,26,20,20,1.00
2014,01,26,20,21,1.00
2014,01,26,20,22,1.00
2014,01,26,20,23,1.00
2014,01,26,20,24,1.00
2014,01,26,20,25,1.00
2014,01,26,20,26,1.00
2014,01,26,20,27,1.00
2014,01,26,20,28,1.00
2014,01,26,20,29,1.00
2014,01,26,20,30,1.00
2014,01,26,20,31,1.00
2014,01,26,20,32,1.00
2014,01,26,20,33,1.00
2014,01,26,20,34,0.90
2014,01,26,20,35,0.90
2014,01,26,20,36,0.90
2014,01,26,20,37,0.90
2014,01,26,20,38,0.90
2014,01,26,20,39,0.90
2014,01,26,20,40,0.90
2014,01,26,20,41,0.90
2014,01,26,20,42,0.90
2014,01,26,20,43,0.90
2014,01,26,20,44,0.80
2014,01,26,20,45,0.80
2014,01,26,20,46,0.80
2014,01,26,20,47,0.80
2014,01,26,20,48,0.80
2014,01,26,20,49,0.80
2014,01,26,20,50,0.80
2014,01,26,20,51,0.80
2014,01,26,20,52,0.80
2014,01,26,20,53,0.80
2014,01,26,20,54,0.80
2014,01,26,20,55,0.80
2014,01,26,20,56,0.80
2014,01,26,20,57,0.80
2014,01,26,20,58,0.80
2014,01,26,20,59,0.80
2014,01,26,21,00,0.70
2014,01,26,21,01,0.70
2014,01,26,21,02,0.70
2014,01,26,21,03,0.70
2014,01,26,21,04,0.70
2014,01,26,21,05,0.70
2014,01,26,21,06,0.70
2014,01,26,21,07,0.60
2014,01,26,21,08,0.60
2014,01,26,21,09,0.60
2014,01,26,21,10,0.60
2014,01,26,21,11,0.60
2014,01,26,21,12,0.60
2014,01,26,21,13,0.60
2014,01,26,21,14,0.50
2014,01,26,21,15,0.50
2014,01,26,21,16,0.50
2014,01,26,21,17,0.50
2014,01,26,21,18,0.40
2014,01,26,21,19,0.40
2014,01,26,21,20,0.40
2014,01,26,21,21,0.40
2014,01,26,21,22,0.40
2014,01,26,21,23,0.40
2014,01,26,21,24,0.30
2014,01,26,21,25,0.30
2014,01,26,21,26,0.30
2014,01,26,21,27,0.30
2014,01,26,21,28,0.20
2014,01,26,21,29,0.20
2014,01,26,21,30,0.20
2014,01,26,21,31,0.10
2014,01,26,21,32,0.10
2014,01,26,21,33,0.10
2014,01,26,21,34,0.10
2014,01,26,21,35,0.10
2014,01,26,21,36,0.10
2014,01,26,21,37,0.10
2014,01,26,21,38,0.10
2014,01,26,21,39,0.10
2014,01,26,21,40,0.10
2014,01,26,21,41,0.10
2014,01,26,21,42,0.10
2014,01,26,21,43,0.10
2014,01,26,21,44,0.00
2014,01,26,21,45,-0.10
2014,01,26,21,46,-0.10
2014,01,26,21,47,-0.10
2014,01,26,21,48,-0.10
2014,01,26,21,49,-0.10
2014,01,26,21,50,-0.10
2014,01,26,21,51,-0.10
2014,01,26,21,52,-0.10
2014,01,26,21,53,-0.10
2014,01,26,21,54,-0.10
2014,01,26,21,55,-0.10
2014,01,26,21,56,-0.10
2014,01,26,21,57,-0.10
2014,01,26,21,58,-0.10
2014,01,26,21,59,-0.10
2014,01,26,22,00,-0.10
2014,01,26,22,01,-0.10
2014,01,26,22,02,-0.10
2014,01,26,22,03,-0.10
2014,01,26,22,04,-0.10
2014,01,26,22,05,-0.10
2014,01,26,22,06,-0.10
2014,01,26,22,07,-0.10
2014,01,26,22,08,-0.10
2014,01,26,22,09,-0.10
2014,01,26,22,10,-0.10
2014,01,26,22,11,-0.10
2014,01,26,22,12,-0.10
2014,01,26,22,13,-0.10
2014,01,26,22,14,-0.10
2014,01,26,22,15,-0.10
2014,01,26,22,16,-0.10
2014,01,26,22,17,-0.10
2014,01,26,22,18,-0.20
2014,01,26,22,19,-0.20
2014,01,26,22,20,-0.20
2014,01,26,22,21,-0.20
2014,01,26,22,22,-0.20
2014,01,26,22,23,-0.30
2014,01,26,22,24,-0.30
2014,01,26,22,25,-0.30
2014,01,26,22,26,-0.30
2014,01,26,22,27,-0.30
2014,01,26,22,28,-0.30
2014,01,26,22,29,-0.30
2014,01,26,22,30,-0.30
2014,01,26,22,31,-0.30
2014,01,26,22,32,-0.30
2014,01,26,22,33,-0.30
2014,01,26,22,34,-0.30
2014,01,26,22,35,-0.40
2014,01,26,22,36,-0.40
2014,01,26,22,37,-0.40
2014,01,26,22,38,-0.40
2014,01,26,22,39,-0.40
2014,01,26,22,40,-0.40
2014,01,26,22,41,-0.40
2014,01,26,22,42,-0.40
2014,01,26,22,43,-0.40
2014,01,26,22,44,-0.40
2014,01,26,22,45,-0.40
2014,01,26,22,46,-0.40
2014,01,26,22,47,-0.40
2014,01,26,22,48,-0.40
2014,01,26,22,49,-0.40
2014,01,26,22,50,-0.40
2014,01,26,22,51,-0.30
2014,01,26,22,52,-0.30
2014,01,26,22,53,-0.30
2014,01,26,22,54,-0.30
2014,01,26,22,55,-0.30
2014,01,26,22,56,-0.30
2014,01,26,22,57,-0.30
2014,01,26,22,58,-0.30
2014,01,26,22,59,-0.20
2014,01,26,23,00,-0.20
2014,01,26,23,01,-0.20
2014,01,26,23,02,-0.20
2014,01,26,23,03,-0.20
2014,01,26,23,04,-0.20
2014,01,26,23,05,-0.20
2014,01,26,23,06,-0.20
2014,01,26,23,07,-0.20
2014,01,26,23,08,-0.20
2014,01,26,23,09,-0.20
2014,01,26,23,10,-0.20
2014,01,26,23,11,-0.20
2014,01,26,23,12,-0.20
2014,01,26,23,13,-0.20